Lima, OH

3:51 AM EDT on April 22, 2018 (GMT -0400)
Lima Allen County

Weather History for KAOH - May, 2013

Change the Weather History Date:

Tuesday, May 14, 2013

  Actual Average (KFDY) Record (KFDY)
Temperature  
Mean Temperature 62 °F -  
Max Temperature 80 °F 69 °F 89 °F (1987)
Min Temperature 45 °F 49 °F 34 °F (1973)
Degree Days  
Heating Degree Days 2    
Growing Degree Days 12 (Base 50)    
Moisture  
Dew Point 44 °F    
Average Humidity 50    
Maximum Humidity 63    
Minimum Humidity 36    
Precipitation  
Precipitation 0.00 in - - ()
Sea Level Pressure  
Sea Level Pressure 29.94 in    
Wind  
Wind Speed 11 mph (South)    
Max Wind Speed 22 mph    
Max Gust Speed 32 mph    
Visibility 10 miles    
Events      
Averages and records for this station are not official NWS values.
T = Trace of Precipitation, MM = Missing Value Source: NWS Daily Summary

Daily Weather History Graph

Daily Weather History Graph

Search for Another Location

Airport or City:

Astronomy

May. 14, 2013 Rise Set
Actual Time 6:19 AM EDT 8:45 PM EDT
Civil Twilight 5:48 AM EDT 9:16 PM EDT
Nautical Twilight 5:10 AM EDT 9:55 PM EDT
Astronomical Twilight 4:27 AM EDT 10:38 PM EDT
Moon 9:58 AM EDT (5/14) No Moon Set
Length of Visible Light 15h 28m
Length of Day
14h 25m
Waxing Crescent, 19% of the Moon is Illuminated
May 14
Waxing Crescent
May 18
First Quarter
May 25
Full
May 31
Last Quarter
Jun 8
New

Hourly Weather History & Observations

Time (EDT) Temp. Windchill Dew Point Humidity Pressure Visibility Wind Dir Wind Speed Gust Speed Precip Events Conditions
12:53 AM 45.0 °F 41.2 °F 32.0 °F 60% 30.13 in 10.0 mi South 6.9 mph - N/A   Clear
1:53 AM 46.0 °F 42.5 °F 34.0 °F 63% 30.12 in 10.0 mi SSE 6.9 mph - N/A   Mostly Cloudy
2:53 AM 45.0 °F 40.1 °F 33.1 °F 63% 30.10 in 10.0 mi SSE 9.2 mph - N/A   Scattered Clouds
3:53 AM 46.9 °F - 33.1 °F 59% 30.09 in 10.0 mi South 8.1 mph - N/A   Mostly Cloudy
4:53 AM 48.0 °F - 33.1 °F 56% 30.06 in 10.0 mi SSE 8.1 mph - N/A   Overcast
5:53 AM 48.9 °F - 34.0 °F 56% 30.06 in 10.0 mi South 6.9 mph - N/A   Overcast
6:53 AM 48.9 °F - 35.1 °F 59% 30.07 in 10.0 mi South 8.1 mph - N/A   Overcast
7:53 AM 50.0 °F - 36.0 °F 59% 30.07 in 10.0 mi South 10.4 mph - N/A   Overcast
8:53 AM 53.1 °F - 35.1 °F 50% 30.06 in 10.0 mi South 13.8 mph - N/A   Overcast
9:53 AM 57.9 °F - 37.0 °F 46% 30.01 in 10.0 mi South 15.0 mph 24.2 mph N/A   Clear
10:53 AM 62.1 °F - 36.0 °F 38% 29.98 in 10.0 mi South 16.1 mph 26.5 mph N/A   Clear
11:53 AM 66.9 °F - 39.0 °F 36% 29.94 in 10.0 mi South 21.9 mph 32.2 mph N/A   Clear
12:53 PM 69.1 °F - 43.0 °F 39% 29.90 in 10.0 mi South 20.7 mph 28.8 mph N/A   Scattered Clouds
1:53 PM 71.1 °F - 45.0 °F 39% 29.87 in 10.0 mi SSW 19.6 mph 28.8 mph N/A   Mostly Cloudy
2:53 PM 73.0 °F - 48.0 °F 41% 29.85 in 10.0 mi SSW 17.3 mph 25.3 mph N/A   Partly Cloudy
3:53 PM 75.9 °F - 50.0 °F 40% 29.81 in 10.0 mi South 18.4 mph 28.8 mph N/A   Clear
4:53 PM 78.1 °F - 51.1 °F 39% 29.81 in 10.0 mi SW 17.3 mph 23.0 mph N/A   Clear
5:53 PM 80.1 °F - 54.0 °F 40% 29.81 in 10.0 mi SW 15.0 mph - N/A   Clear
6:53 PM 79.0 °F - 54.0 °F 42% 29.80 in 10.0 mi SW 13.8 mph - N/A   Mostly Cloudy
7:53 PM 79.0 °F - 55.9 °F 45% 29.79 in 10.0 mi WSW 6.9 mph - N/A   Partly Cloudy
8:53 PM 75.0 °F - 55.9 °F 51% 29.78 in 10.0 mi South 5.8 mph - N/A   Clear
9:53 PM 71.1 °F - 57.0 °F 61% 29.78 in 10.0 mi South 8.1 mph - N/A   Clear
10:53 PM 72.0 °F - 55.9 °F 57% 29.79 in 10.0 mi SSW 5.8 mph - N/A   Clear
11:53 PM 72.0 °F - 57.0 °F 59% 29.79 in 10.0 mi SSW 9.2 mph - N/A   Clear